Location: Rometta
(44.2000°N, 10.0500°E)
Time: 12:06:18
(UTC+00:00)

Cosmos 2082 Rocket - Pass Details

Date: 20 January 2021
Orbit: 832 x 854 km, 71.0° (Epoch: 07 March)

Event Time Altitude Azimuth Distance (km) Brightness Sun altitude
Rises 17:50:09 0° 345° (NNW) 3,435 5.4 -17.1°
Reaches altitude 10° 17:54:21 10° 15° (NNE) 2,495 4.4 -17.8°
Enters shadow 17:55:22 12° 25° (NNE) 2,376 4.2 -18.0°
